Date String (YYYY-MM-DD hh:mm:ss) UTC,Instrument flags,absolute air pressure of the measurement (hPa),sample flow rate (lpm),inlet stack bypass flow (lpm),air temperature of the measurement (°C),ambient temperature measured by the external sensor (°C),aerosol sample conditioner tube jacket temperature (°C),OPC LED temperature (°C),internal box temperature (°C),relative humidity of the measurement (%),span deviation,mass concentration of particles derived from Lorenz-Mie calculation of OPC scattering (μg/m³),mass concentration of particles derived from Lorenz-Mie calculation of OPC scattering (μg/m³),mass concentration of particles derived from Lorenz-Mie calculation of OPC scattering (μg/m³)
DateTimeUTC,F1_M11,P_M11,Q1_M11,Q2_M11,T1_M11,T2_M11,T3_M11,T4_M11,T5_M11,U1_M11,ZSPAN_M11,X0_M11,X2_M11,X1_M11
2023-12-31 04:00:00,SystemResetWarning,0830.0,5.00,000.00,024.6,023.2,000.0,033.1,026.0,9.0,0000.0,0009.69,0004.34,0003.70
2023-12-31 04:01:00,SystemResetWarning,0830.0,5.00,000.00,024.6,023.2,000.0,033.1,025.9,9.0,0000.0,0009.74,0004.36,0003.68
2023-12-31 04:02:00,SystemResetWarning,0830.1,5.00,000.00,024.6,023.2,000.0,033.1,025.9,9.0,0000.0,0010.67,0004.35,0003.67
2023-12-31 04:03:00,SystemResetWarning,0830.0,5.00,000.00,024.6,023.1,000.0,033.1,025.9,9.0,0000.0,0010.92,0004.28,0003.65
2023-12-31 04:04:00,SystemResetWarning,0830.0,5.00,000.00,024.6,023.1,000.0,033.0,025.9,9.1,0000.0,0011.61,0004.25,0003.63
2023-12-31 04:05:00,SystemResetWarning,0830.0,5.00,000.00,024.6,023.1,000.0,033.0,025.9,9.1,0000.0,0011.58,0004.26,0003.62
2023-12-31 04:06:00,SystemResetWarning,0830.0,5.00,000.00,024.5,023.1,000.0,033.0,025.9,9.1,0000.0,0011.09,0004.27,0003.60
2023-12-31 04:07:00,SystemResetWarning,0830.1,5.00,000.00,024.5,023.1,000.0,033.0,025.8,9.1,0000.0,0011.24,0004.28,0003.60
2023-12-31 04:08:00,SystemResetWarning,0830.0,5.00,000.00,024.5,023.1,000.0,033.0,025.9,9.1,0000.0,0012.00,0004.27,0003.59
2023-12-31 04:09:00,SystemResetWarning,0830.0,5.00,000.00,024.5,023.0,000.0,033.0,025.8,9.1,0000.0,0012.53,0004.26,0003.57
2023-12-31 04:10:00,SystemResetWarning,0830.1,5.00,000.00,024.5,023.0,000.0,033.0,025.8,9.1,0000.0,0012.54,0004.26,0003.57
2023-12-31 04:11:00,SystemResetWarning,0830.0,5.00,000.00,024.5,023.0,000.0,032.9,025.8,9.1,0000.0,0012.71,0004.24,0003.58
2023-12-31 04:12:00,SystemResetWarning,0830.0,5.00,000.00,024.5,023.0,000.0,032.9,025.8,9.1,0000.0,0012.56,0004.19,0003.57
2023-12-31 04:13:00,SystemResetWarning,0830.0,5.00,000.00,024.4,023.0,000.0,032.9,025.7,9.0,0000.0,0011.84,0004.14,0003.57
2023-12-31 04:14:00,SystemResetWarning,0830.0,5.00,000.00,024.4,023.0,000.0,032.9,025.7,9.0,0000.0,0011.26,0004.10,0003.56
2023-12-31 04:15:00,SystemResetWarning,0830.0,5.01,000.00,024.4,023.0,000.0,032.9,025.7,9.1,0000.0,0010.44,0004.08,0003.57
2023-12-31 04:16:00,SystemResetWarning,0830.0,5.00,000.00,024.4,023.0,000.0,032.9,025.7,9.1,0000.0,0010.61,0004.07,0003.58
2023-12-31 04:17:00,SystemResetWarning,0830.0,5.00,000.00,024.4,023.0,000.0,032.8,025.7,9.1,0000.0,0010.71,0004.10,0003.58
2023-12-31 04:18:00,SystemResetWarning,0830.0,5.01,000.00,024.4,023.0,000.0,032.8,025.7,9.1,0000.0,0011.37,0004.08,0003.58
2023-12-31 04:19:00,SystemResetWarning,0830.0,5.00,000.00,024.4,023.0,000.0,032.8,025.7,9.2,0000.0,0011.07,0004.09,0003.57
2023-12-31 04:20:00,SystemResetWarning,0830.0,5.01,000.00,024.3,023.0,000.0,032.8,025.6,9.1,0000.0,0010.43,0004.09,0003.58
2023-12-31 04:21:00,SystemResetWarning,0830.0,4.99,000.00,024.3,022.9,000.0,032.8,025.6,9.1,0000.0,0010.84,0004.09,0003.58
2023-12-31 04:22:00,SystemResetWarning,0830.0,4.99,000.00,024.3,022.9,000.0,032.8,025.6,9.2,0000.0,0010.88,0004.09,0003.58
2023-12-31 04:23:00,SystemResetWarning,0830.0,5.00,000.00,024.3,022.9,000.0,032.8,025.6,9.2,0000.0,0010.45,0004.06,0003.59
2023-12-31 04:24:00,SystemResetWarning,0830.0,5.01,000.00,024.3,022.9,000.0,032.8,025.6,9.2,0000.0,0009.96,0004.10,0003.61
2023-12-31 04:25:00,SystemResetWarning,0830.1,5.00,000.00,024.3,022.9,000.0,032.7,025.6,9.1,0000.0,0010.03,0004.14,0003.63
2023-12-31 04:26:00,SystemResetWarning,0830.1,5.01,000.00,024.3,022.9,000.0,032.7,025.6,9.1,0000.0,0009.78,0004.14,0003.64
2023-12-31 04:27:00,SystemResetWarning,0830.1,5.00,000.00,024.3,022.9,000.0,032.7,025.6,9.1,0000.0,0009.80,0004.14,0003.64
2023-12-31 04:28:00,SystemResetWarning,0830.0,4.99,000.00,024.2,022.9,000.0,032.7,025.6,9.2,0000.0,0009.76,0004.12,0003.64
2023-12-31 04:29:00,SystemResetWarning,0830.0,4.99,000.00,024.2,022.8,000.0,032.7,025.5,9.2,0000.0,0008.99,0004.10,0003.63
2023-12-31 04:30:00,SystemResetWarning,0830.0,5.00,000.00,024.2,022.8,000.0,032.7,025.5,9.2,0000.0,0008.62,0004.09,0003.63
2023-12-31 04:31:00,SystemResetWarning,0830.0,5.00,000.00,024.2,022.8,000.0,032.7,025.5,9.2,0000.0,0008.67,0004.09,0003.62
2023-12-31 04:32:00,SystemResetWarning,0830.0,5.00,000.00,024.2,022.8,000.0,032.6,025.5,9.2,0000.0,0009.10,0004.07,0003.61
2023-12-31 04:33:00,SystemResetWarning,0830.0,5.00,000.00,024.2,022.8,000.0,032.6,025.5,9.2,0000.0,0010.13,0004.11,0003.60
2023-12-31 04:34:00,SystemResetWarning,0830.0,5.00,000.00,024.1,022.8,000.0,032.6,025.5,9.2,0000.0,0010.21,0004.12,0003.57
2023-12-31 04:35:00,SystemResetWarning,0830.0,5.00,000.00,024.1,022.7,000.0,032.6,025.5,9.2,0000.0,0010.71,0004.08,0003.55
2023-12-31 04:36:00,SystemResetWarning,0830.0,5.00,000.00,024.1,022.7,000.0,032.6,025.5,9.2,0000.0,0010.68,0004.05,0003.53
2023-12-31 04:37:00,SystemResetWarning,0830.0,5.00,000.00,024.1,022.7,000.0,032.6,025.5,9.2,0000.0,0010.78,0004.08,0003.51
2023-12-31 04:38:00,SystemResetWarning,0830.0,5.00,000.00,024.1,022.7,000.0,032.6,025.4,9.2,0000.0,0010.53,0004.07,0003.50
2023-12-31 04:39:00,SystemResetWarning,0830.0,5.00,000.00,024.1,022.7,000.0,032.5,025.4,9.2,0000.0,0010.47,0004.09,0003.50
2023-12-31 04:40:00,SystemResetWarning,0830.0,5.00,000.00,024.1,022.7,000.0,032.5,025.4,9.2,0000.0,0011.03,0004.08,0003.50
2023-12-31 04:41:00,SystemResetWarning,0830.0,5.00,000.00,024.1,022.7,000.0,032.5,025.4,9.2,0000.0,0011.28,0004.05,0003.50
2023-12-31 04:42:00,SystemResetWarning,0830.0,5.00,000.00,024.1,022.7,000.0,032.5,025.4,9.2,0000.0,0011.24,0004.05,0003.50
2023-12-31 04:43:00,SystemResetWarning,0830.0,5.00,000.00,024.0,022.7,000.0,032.5,025.4,9.2,0000.0,0010.54,0004.06,0003.49
2023-12-31 04:44:00,SystemResetWarning,0830.0,5.00,000.00,024.0,022.6,000.0,032.5,025.4,9.2,0000.0,0009.69,0004.04,0003.49
2023-12-31 04:45:00,SystemResetWarning,0830.0,5.00,000.00,024.0,022.6,000.0,032.5,025.4,9.3,0000.0,0009.89,0004.03,0003.50
2023-12-31 04:46:00,SystemResetWarning,0830.0,5.00,000.00,024.0,022.6,000.0,032.5,025.4,9.3,0000.0,0009.55,0004.06,0003.50
2023-12-31 04:47:00,SystemResetWarning,0830.0,5.00,000.00,024.0,022.6,000.0,032.4,025.4,9.3,0000.0,0009.53,0004.09,0003.50
2023-12-31 04:48:00,SystemResetWarning,0830.1,5.00,000.00,024.0,022.6,000.0,032.4,025.3,9.3,0000.0,0009.42,0004.05,0003.50
2023-12-31 04:49:00,SystemResetWarning,0830.0,5.00,000.00,024.0,022.6,000.0,032.4,025.4,9.3,0000.0,0009.40,0004.02,0003.49
2023-12-31 04:50:00,SystemResetWarning,0830.0,5.00,000.00,024.0,022.6,000.0,032.4,025.3,9.3,0000.0,0009.17,0003.96,0003.48
2023-12-31 04:51:00,SystemResetWarning,0830.0,5.00,000.00,024.0,022.6,000.0,032.4,025.3,9.3,0000.0,0008.59,0003.93,0003.47
2023-12-31 04:52:00,SystemResetWarning,0830.0,5.00,000.00,024.0,022.5,000.0,032.4,025.3,9.3,0000.0,0008.28,0003.96,0003.48
2023-12-31 04:53:00,SystemResetWarning,0830.0,5.00,000.00,024.0,022.5,000.0,032.4,025.3,9.3,0000.0,0008.12,0003.95,0003.48
2023-12-31 04:54:00,SystemResetWarning,0830.0,5.00,000.00,023.9,022.5,000.0,032.4,025.3,9.3,0000.0,0008.01,0003.93,0003.48
2023-12-31 04:55:00,SystemResetWarning,0830.0,5.00,000.00,023.9,022.5,000.0,032.3,025.3,9.3,0000.0,0007.94,0003.91,0003.48
2023-12-31 04:56:00,SystemResetWarning,0830.0,5.00,000.00,023.9,022.5,000.0,032.3,025.2,9.3,0000.0,0008.39,0003.89,0003.48
2023-12-31 04:57:00,SystemResetWarning,0830.0,5.00,000.00,023.9,022.5,000.0,032.3,025.2,9.3,0000.0,0008.36,0003.89,0003.48
2023-12-31 04:58:00,SystemResetWarning,0830.0,5.00,000.00,023.9,022.5,000.0,032.3,025.2,9.3,0000.0,0008.27,0003.87,0003.48
2023-12-31 04:59:00,SystemResetWarning,0830.0,5.00,000.00,023.9,022.5,000.0,032.3,025.2,9.3,0000.0,0008.25,0003.87,0003.49
